KUIPER-00143

基本信息
目录编号:
65785
目录名称:
KUIPER-00172
国际标识:
2025-217Z
轨道中心:
EARTH
卫星名称:
KUIPER-00143
卫星全名:
KUIPER-00143
卫星状态:
在轨 (已飞行25 天)
发射日期:
2025-09-25 UTC
国别 :
美国 (US)
星等 :
--
轨道信息
数据来源 国际轨道数据
星历时间: 2025-10-20T14:46:36+0800
6小时前
查看轨道信息
半长轴: 6832.627km
偏心率: 0.0002506
轨道倾角: 51.874°
近地点辐角 112.278°
升交点赤经 322.722°
平近点角 247.848°
近地点: 452.779km
远地点: 456.205km
周期: 93.679分钟
每日圈数: 15.371676
详细信息
使用方式:
暂无
2D轨道图
3D轨道图
轨道高度分析图
轨道倾角分析图
轨道综合分析图
查看轨道综合分析图